Terug naar catalogus

STARLINK-34365

ActiefCommunicatieVLEO
NORAD 64671·PAYLOAD·🇺🇸 United States

Gelanceerd Jun 28, 2025 vanaf Cape Canaveral Space Force Station

Loading…

Volgende Passages (komende 24 uur)

TLE

VersSource: CelesTrak SupGP

Epoch: Sep 15, 2026, 02:51 UTC

1 64671C 25139H   26258.11923611  .00060316  00000+0  17820-2 0  2584
2 64671  53.1596 323.1757 0001224  89.2787 240.9496 15.34361911    12

Volg STARLINK-34365 in realtime met AllMySat

Download on the App Store